Time,TemperatureF,DewpointF,PressureIn,WindDirection,WindDirectionDegrees,WindSpeedMPH,WindSpeedGustMPH,Humidity,HourlyPrecipIn,Conditions,Clouds,dailyrainin,SoftwareType,DateUTC
2013-07-18 00:01:00,74.3,69.5,30.06,SW,232,0.0,0.0,85,0.00,,,0.00,Wunderground v.1.15,2013-07-18 05:01:00,
2013-07-18 00:07:00,74.2,69.7,30.06,SW,232,0.0,0.0,86,0.00,,,0.00,Wunderground v.1.15,2013-07-18 05:07:00,
2013-07-18 00:13:00,74.0,69.5,30.06,SW,232,0.0,0.0,86,0.00,,,0.00,Wunderground v.1.15,2013-07-18 05:13:00,
2013-07-18 00:18:00,74.0,69.5,30.06,SW,232,0.0,0.0,86,0.00,,,0.00,Wunderground v.1.15,2013-07-18 05:18:00,
2013-07-18 00:24:00,73.9,69.4,30.05,SW,232,0.0,0.0,86,0.00,,,0.00,Wunderground v.1.15,2013-07-18 05:24:00,
2013-07-18 00:30:00,73.9,69.4,30.05,SW,232,0.0,0.0,86,0.00,,,0.00,Wunderground v.1.15,2013-07-18 05:30:00,
2013-07-18 00:35:00,73.8,69.3,30.05,SW,232,0.0,0.0,86,0.00,,,0.00,Wunderground v.1.15,2013-07-18 05:35:00,
2013-07-18 00:41:00,73.6,69.2,30.05,SW,232,0.0,0.0,86,0.00,,,0.00,Wunderground v.1.15,2013-07-18 05:41:00,
2013-07-18 00:47:00,73.5,69.1,30.05,SW,232,0.0,0.0,86,0.00,,,0.00,Wunderground v.1.15,2013-07-18 05:47:00,
2013-07-18 00:52:00,73.3,69.2,30.05,SW,232,0.0,0.0,87,0.00,,,0.00,Wunderground v.1.15,2013-07-18 05:52:00,
2013-07-18 00:58:00,73.1,69.0,30.04,SW,232,0.0,0.0,87,0.00,,,0.00,Wunderground v.1.15,2013-07-18 05:58:00,
2013-07-18 01:04:00,73.0,68.9,30.04,SW,232,0.0,0.0,87,0.00,,,0.00,Wunderground v.1.15,2013-07-18 06:04:00,
2013-07-18 01:10:00,72.9,68.8,30.04,SW,232,0.0,0.0,87,0.00,,,0.00,Wunderground v.1.15,2013-07-18 06:10:00,
2013-07-18 01:16:00,72.9,68.8,30.04,SW,234,0.0,0.0,87,0.00,,,0.00,Wunderground v.1.15,2013-07-18 06:16:00,
2013-07-18 01:21:00,72.9,69.1,30.04,SW,235,0.0,0.0,88,0.00,,,0.00,Wunderground v.1.15,2013-07-18 06:21:00,
2013-07-18 01:27:00,72.8,69.4,30.04,SW,235,0.0,0.0,89,0.00,,,0.00,Wunderground v.1.15,2013-07-18 06:27:00,
2013-07-18 01:33:00,72.5,68.7,30.04,SW,235,0.0,0.0,88,0.00,,,0.00,Wunderground v.1.15,2013-07-18 06:33:00,
2013-07-18 01:39:00,72.4,69.0,30.04,SW,235,0.0,0.0,89,0.00,,,0.00,Wunderground v.1.15,2013-07-18 06:39:00,
2013-07-18 01:45:00,72.2,68.8,30.04,SW,235,0.0,0.0,89,0.00,,,0.00,Wunderground v.1.15,2013-07-18 06:45:00,
2013-07-18 01:50:00,72.1,68.7,30.04,SW,235,0.0,0.0,89,0.00,,,0.00,Wunderground v.1.15,2013-07-18 06:50:00,
2013-07-18 01:56:00,71.9,68.5,30.04,SW,235,0.0,0.0,89,0.00,,,0.00,Wunderground v.1.15,2013-07-18 06:56:00,
2013-07-18 02:03:00,71.8,68.7,30.04,SW,235,0.0,0.0,90,0.00,,,0.00,Wunderground v.1.15,2013-07-18 07:03:00,
2013-07-18 02:08:00,71.6,68.5,30.04,SW,235,0.0,0.0,90,0.00,,,0.00,Wunderground v.1.15,2013-07-18 07:08:00,
2013-07-18 02:14:00,71.5,68.4,30.04,SW,235,0.0,0.0,90,0.00,,,0.00,Wunderground v.1.15,2013-07-18 07:14:00,
2013-07-18 02:20:00,71.5,68.7,30.04,SW,235,0.0,0.0,91,0.00,,,0.00,Wunderground v.1.15,2013-07-18 07:20:00,
2013-07-18 02:25:00,71.5,68.7,30.04,SW,235,0.0,0.0,91,0.00,,,0.00,Wunderground v.1.15,2013-07-18 07:25:00,
2013-07-18 02:31:00,71.4,68.3,30.04,SW,234,0.0,0.0,90,0.00,,,0.00,Wunderground v.1.15,2013-07-18 07:31:00,
2013-07-18 02:37:00,71.3,68.5,30.04,South,174,0.0,0.0,91,0.00,,,0.00,Wunderground v.1.15,2013-07-18 07:37:00,
2013-07-18 02:43:00,71.3,68.2,30.03,SSE,167,0.0,0.0,90,0.00,,,0.00,Wunderground v.1.15,2013-07-18 07:43:00,
2013-07-18 02:49:00,71.3,68.2,30.03,SSE,157,0.0,0.0,90,0.00,,,0.00,Wunderground v.1.15,2013-07-18 07:49:00,
2013-07-18 02:54:00,71.3,68.2,30.03,SSE,165,0.0,0.0,90,0.00,,,0.00,Wunderground v.1.15,2013-07-18 07:54:00,
2013-07-18 03:00:00,71.3,68.2,30.03,SSE,165,0.0,0.0,90,0.00,,,0.00,Wunderground v.1.15,2013-07-18 08:00:00,
2013-07-18 03:06:00,71.3,68.2,30.03,SSE,165,0.0,0.0,90,0.00,,,0.00,Wunderground v.1.15,2013-07-18 08:06:00,
2013-07-18 03:12:00,71.3,68.2,30.03,SSE,165,0.0,0.0,90,0.00,,,0.00,Wunderground v.1.15,2013-07-18 08:12:00,
2013-07-18 03:17:00,71.3,68.2,30.03,SSE,165,0.0,0.0,90,0.00,,,0.00,Wunderground v.1.15,2013-07-18 08:17:00,
2013-07-18 03:23:00,71.3,68.2,30.03,SSE,165,0.0,0.0,90,0.00,,,0.00,Wunderground v.1.15,2013-07-18 08:23:00,
2013-07-18 03:28:00,71.3,68.2,30.03,SSE,165,0.0,0.0,90,0.00,,,0.00,Wunderground v.1.15,2013-07-18 08:28:00,
2013-07-18 03:33:00,71.3,68.5,30.03,SSE,165,0.0,0.0,91,0.00,,,0.00,Wunderground v.1.15,2013-07-18 08:33:00,
2013-07-18 03:39:00,71.3,68.5,30.03,SSE,165,0.0,0.0,91,0.00,,,0.00,Wunderground v.1.15,2013-07-18 08:39:00,
2013-07-18 03:45:00,71.2,68.4,30.02,South,179,0.0,0.0,91,0.00,,,0.00,Wunderground v.1.15,2013-07-18 08:45:00,
2013-07-18 03:51:00,71.1,68.3,30.02,South,179,0.0,0.0,91,0.00,,,0.00,Wunderground v.1.15,2013-07-18 08:51:00,
2013-07-18 03:57:00,71.1,68.3,30.02,South,179,0.0,0.0,91,0.00,,,0.00,Wunderground v.1.15,2013-07-18 08:57:00,
2013-07-18 04:03:00,71.1,68.3,30.02,South,179,0.0,0.0,91,0.00,,,0.00,Wunderground v.1.15,2013-07-18 09:03:00,
2013-07-18 04:08:00,71.1,68.3,30.02,SSW,200,0.0,0.0,91,0.00,,,0.00,Wunderground v.1.15,2013-07-18 09:08:00,
2013-07-18 04:14:00,71.1,68.3,30.02,SSW,200,0.0,0.0,91,0.00,,,0.00,Wunderground v.1.15,2013-07-18 09:14:00,
2013-07-18 04:20:00,71.0,68.2,30.02,SSW,200,0.0,0.0,91,0.00,,,0.00,Wunderground v.1.15,2013-07-18 09:20:00,
2013-07-18 04:25:00,71.0,68.2,30.01,SW,230,0.0,0.0,91,0.00,,,0.00,Wunderground v.1.15,2013-07-18 09:25:00,
2013-07-18 04:31:00,71.0,68.2,30.01,SW,226,0.0,0.0,91,0.00,,,0.00,Wunderground v.1.15,2013-07-18 09:31:00,
2013-07-18 04:37:00,71.0,68.2,30.01,SW,223,0.0,0.0,91,0.00,,,0.00,Wunderground v.1.15,2013-07-18 09:37:00,
2013-07-18 04:43:00,71.2,68.4,30.00,SW,215,0.0,0.0,91,0.00,,,0.00,Wunderground v.1.15,2013-07-18 09:43:00,
2013-07-18 04:48:00,71.3,68.5,30.00,SW,215,0.0,0.0,91,0.00,,,0.00,Wunderground v.1.15,2013-07-18 09:48:00,
2013-07-18 04:54:00,71.3,68.5,30.00,SW,215,0.0,0.0,91,0.00,,,0.00,Wunderground v.1.15,2013-07-18 09:54:00,
2013-07-18 05:00:00,71.3,68.5,30.00,SW,215,0.0,0.0,91,0.00,,,0.00,Wunderground v.1.15,2013-07-18 10:00:00,
2013-07-18 05:05:00,71.3,68.5,30.00,SW,215,0.0,0.0,91,0.00,,,0.00,Wunderground v.1.15,2013-07-18 10:05:00,
2013-07-18 05:11:00,71.2,68.4,30.00,SW,215,0.0,0.0,91,0.00,,,0.00,Wunderground v.1.15,2013-07-18 10:11:00,
2013-07-18 05:17:00,71.1,68.3,30.00,SW,215,0.0,0.0,91,0.00,,,0.00,Wunderground v.1.15,2013-07-18 10:17:00,
2013-07-18 05:23:00,71.0,68.6,30.00,SW,215,0.0,0.0,92,0.00,,,0.00,Wunderground v.1.15,2013-07-18 10:23:00,
2013-07-18 05:28:00,71.0,68.6,29.99,SW,224,0.0,0.0,92,0.00,,,0.00,Wunderground v.1.15,2013-07-18 10:28:00,
2013-07-18 05:34:00,71.1,68.7,29.99,SW,224,0.0,0.0,92,0.00,,,0.00,Wunderground v.1.15,2013-07-18 10:34:00,
2013-07-18 05:40:00,71.2,68.8,29.99,SSW,212,0.0,0.0,92,0.00,,,0.00,Wunderground v.1.15,2013-07-18 10:40:00,
2013-07-18 05:46:00,71.2,68.8,29.99,South,172,0.0,0.0,92,0.00,,,0.00,Wunderground v.1.15,2013-07-18 10:46:00,
2013-07-18 05:52:00,71.3,68.9,29.99,South,172,0.0,0.0,92,0.00,,,0.00,Wunderground v.1.15,2013-07-18 10:52:00,
2013-07-18 05:57:00,71.4,69.0,29.99,WSW,242,0.0,0.0,92,0.00,,,0.00,Wunderground v.1.15,2013-07-18 10:57:00,
2013-07-18 06:03:00,71.6,69.2,29.99,WSW,240,0.0,0.0,92,0.00,,,0.00,Wunderground v.1.15,2013-07-18 11:03:00,
2013-07-18 06:08:00,71.6,68.8,29.99,WSW,238,0.0,0.0,91,0.00,,,0.00,Wunderground v.1.15,2013-07-18 11:08:00,
2013-07-18 06:13:00,71.7,68.9,29.99,SW,227,0.0,0.0,91,0.00,,,0.00,Wunderground v.1.15,2013-07-18 11:13:00,
2013-07-18 06:19:00,72.1,69.6,29.99,SSW,207,0.0,0.0,92,0.00,,,0.00,Wunderground v.1.15,2013-07-18 11:19:00,
2013-07-18 06:25:00,72.7,69.9,29.99,SW,217,0.0,0.0,91,0.00,,,0.00,Wunderground v.1.15,2013-07-18 11:25:00,
2013-07-18 06:31:00,73.2,70.1,29.99,SW,226,0.0,0.0,90,0.00,,,0.00,Wunderground v.1.15,2013-07-18 11:31:00,
2013-07-18 06:37:00,73.7,70.6,29.99,SW,224,0.0,0.0,90,0.00,,,0.00,Wunderground v.1.15,2013-07-18 11:37:00,
2013-07-18 06:43:00,74.1,70.6,29.99,SW,235,0.0,0.0,89,0.00,,,0.00,Wunderground v.1.15,2013-07-18 11:43:00,
2013-07-18 06:49:00,74.3,70.5,29.99,WSW,246,0.0,0.0,88,0.00,,,0.00,Wunderground v.1.15,2013-07-18 11:49:00,
2013-07-18 06:55:00,74.4,70.6,29.99,SW,220,0.0,0.0,88,0.00,,,0.00,Wunderground v.1.15,2013-07-18 11:55:00,
2013-07-18 07:00:00,74.6,70.8,29.99,WSW,239,0.0,0.0,88,0.00,,,0.00,Wunderground v.1.15,2013-07-18 12:00:00,
2013-07-18 07:06:00,74.8,71.3,29.99,WSW,245,0.0,0.0,89,0.00,,,0.00,Wunderground v.1.15,2013-07-18 12:06:00,
2013-07-18 07:12:00,75.1,71.3,29.99,WSW,245,0.0,0.0,88,0.00,,,0.00,Wunderground v.1.15,2013-07-18 12:12:00,
2013-07-18 07:18:00,75.5,71.7,29.99,WSW,244,0.0,0.0,88,0.00,,,0.00,Wunderground v.1.15,2013-07-18 12:18:00,
2013-07-18 07:24:00,75.9,71.4,29.99,West,264,0.0,0.0,86,0.00,,,0.00,Wunderground v.1.15,2013-07-18 12:24:00,
2013-07-18 07:29:00,76.4,72.2,29.99,SW,228,0.0,0.0,87,0.00,,,0.00,Wunderground v.1.15,2013-07-18 12:29:00,
2013-07-18 07:35:00,76.7,72.2,29.99,SW,229,0.0,0.0,86,0.00,,,0.00,Wunderground v.1.15,2013-07-18 12:35:00,
2013-07-18 07:41:00,77.1,72.2,29.99,WSW,239,0.0,0.0,85,0.00,,,0.00,Wunderground v.1.15,2013-07-18 12:41:00,
2013-07-18 07:47:00,77.5,72.3,29.99,WSW,239,0.0,0.0,84,0.00,,,0.00,Wunderground v.1.15,2013-07-18 12:47:00,
2013-07-18 07:52:00,77.9,72.7,29.99,WSW,238,0.0,0.0,84,0.00,,,0.00,Wunderground v.1.15,2013-07-18 12:52:00,
2013-07-18 07:58:00,78.1,72.5,29.99,WSW,240,0.0,0.0,83,0.00,,,0.00,Wunderground v.1.15,2013-07-18 12:58:00,
2013-07-18 08:04:00,78.4,72.4,29.98,SW,231,0.0,0.0,82,0.00,,,0.00,Wunderground v.1.15,2013-07-18 13:04:00,
2013-07-18 08:10:00,78.8,72.8,29.98,WSW,238,0.0,0.0,82,0.00,,,0.00,Wunderground v.1.15,2013-07-18 13:10:00,
2013-07-18 08:16:00,79.1,72.8,29.98,SW,236,0.0,0.0,81,0.00,,,0.00,Wunderground v.1.15,2013-07-18 13:16:00,
2013-07-18 08:21:00,79.4,73.1,29.98,SW,225,0.0,0.0,81,0.00,,,0.00,Wunderground v.1.15,2013-07-18 13:21:00,
2013-07-18 08:27:00,79.9,73.2,29.98,SSW,209,0.0,0.0,80,0.00,,,0.00,Wunderground v.1.15,2013-07-18 13:27:00,
2013-07-18 08:33:00,80.3,73.2,29.98,West,260,0.0,0.0,79,0.00,,,0.00,Wunderground v.1.15,2013-07-18 13:33:00,
2013-07-18 08:39:00,80.7,73.6,29.97,West,281,0.0,0.0,79,0.00,,,0.00,Wunderground v.1.15,2013-07-18 13:39:00,
2013-07-18 08:44:00,81.0,73.1,29.97,SW,234,0.0,0.0,77,0.00,,,0.00,Wunderground v.1.15,2013-07-18 13:44:00,
2013-07-18 08:50:00,81.3,73.4,29.97,West,261,0.0,0.0,77,0.00,,,0.00,Wunderground v.1.15,2013-07-18 13:50:00,
2013-07-18 08:56:00,81.6,73.3,29.97,WNW,291,0.0,0.0,76,0.00,,,0.00,Wunderground v.1.15,2013-07-18 13:56:00,
2013-07-18 09:01:00,81.8,73.1,29.97,WSW,242,0.0,0.0,75,0.00,,,0.00,Wunderground v.1.15,2013-07-18 14:01:00,
2013-07-18 09:06:00,81.9,73.2,29.97,West,269,0.0,0.0,75,0.00,,,0.00,Wunderground v.1.15,2013-07-18 14:06:00,
2013-07-18 09:12:00,82.2,73.5,29.96,WSW,242,0.0,0.0,75,0.00,,,0.00,Wunderground v.1.15,2013-07-18 14:12:00,
2013-07-18 09:18:00,82.6,74.7,29.97,West,261,0.0,0.0,77,0.00,,,0.00,Wunderground v.1.15,2013-07-18 14:18:00,
2013-07-18 09:24:00,82.8,73.7,29.97,SW,235,0.0,0.0,74,0.00,,,0.00,Wunderground v.1.15,2013-07-18 14:24:00,
2013-07-18 09:29:00,82.9,74.2,29.96,West,263,0.0,0.0,75,0.00,,,0.00,Wunderground v.1.15,2013-07-18 14:29:00,
2013-07-18 09:35:00,83.3,74.1,29.96,WSW,257,0.0,0.0,74,0.00,,,0.00,Wunderground v.1.15,2013-07-18 14:35:00,
2013-07-18 09:41:00,83.4,74.2,29.96,WSW,246,0.0,0.0,74,0.00,,,0.00,Wunderground v.1.15,2013-07-18 14:41:00,
2013-07-18 09:47:00,83.6,74.0,29.96,WSW,254,0.0,0.0,73,0.00,,,0.00,Wunderground v.1.15,2013-07-18 14:47:00,
2013-07-18 09:53:00,83.8,73.8,29.96,WSW,244,0.0,0.0,72,0.00,,,0.00,Wunderground v.1.15,2013-07-18 14:53:00,
2013-07-18 09:58:00,83.9,73.5,29.95,West,259,0.0,0.0,71,0.00,,,0.00,Wunderground v.1.15,2013-07-18 14:58:00,
2013-07-18 10:04:00,83.9,73.5,29.95,WSW,256,0.0,0.0,71,0.00,,,0.00,Wunderground v.1.15,2013-07-18 15:04:00,
2013-07-18 10:10:00,84.3,74.3,29.95,WSW,240,0.0,0.0,72,0.00,,,0.00,Wunderground v.1.15,2013-07-18 15:10:00,
2013-07-18 10:16:00,84.5,73.6,29.95,West,263,0.0,0.0,70,0.00,,,0.00,Wunderground v.1.15,2013-07-18 15:16:00,
2013-07-18 10:22:00,84.7,74.3,29.94,West,276,0.0,0.0,71,0.00,,,0.00,Wunderground v.1.15,2013-07-18 15:22:00,
2013-07-18 10:27:00,85.0,74.1,29.94,WSW,257,0.0,0.0,70,0.00,,,0.00,Wunderground v.1.15,2013-07-18 15:27:00,
2013-07-18 10:32:00,85.0,73.7,29.94,WSW,238,0.0,0.0,69,0.00,,,0.00,Wunderground v.1.15,2013-07-18 15:32:00,
2013-07-18 10:38:00,85.2,73.9,29.94,WSW,249,0.0,0.0,69,0.00,,,0.00,Wunderground v.1.15,2013-07-18 15:38:00,
2013-07-18 10:44:00,85.1,73.3,29.94,WSW,258,0.0,0.0,68,0.00,,,0.00,Wunderground v.1.15,2013-07-18 15:44:00,
2013-07-18 10:50:00,85.2,73.0,29.94,SW,214,0.0,0.0,67,0.00,,,0.00,Wunderground v.1.15,2013-07-18 15:50:00,
2013-07-18 10:55:00,85.3,73.5,29.93,SW,234,0.0,0.0,68,0.00,,,0.00,Wunderground v.1.15,2013-07-18 15:55:00,
2013-07-18 11:01:00,85.7,73.5,29.93,WSW,242,0.0,0.0,67,0.00,,,0.00,Wunderground v.1.15,2013-07-18 16:01:00,
2013-07-18 11:07:00,85.9,74.1,29.93,West,265,0.0,0.0,68,0.00,,,0.00,Wunderground v.1.15,2013-07-18 16:07:00,
2013-07-18 11:13:00,86.1,73.4,29.93,West,261,0.0,0.0,66,0.00,,,0.00,Wunderground v.1.15,2013-07-18 16:13:00,
2013-07-18 11:19:00,86.2,74.0,29.93,SSW,207,0.0,0.0,67,0.00,,,0.00,Wunderground v.1.15,2013-07-18 16:19:00,
2013-07-18 11:25:00,86.5,74.2,29.93,WSW,258,0.0,0.0,67,0.00,,,0.00,Wunderground v.1.15,2013-07-18 16:25:00,
2013-07-18 11:31:00,86.1,74.3,29.92,WSW,247,0.0,0.0,68,0.00,,,0.00,Wunderground v.1.15,2013-07-18 16:31:00,
2013-07-18 11:36:00,86.1,73.4,29.92,WSW,253,0.0,0.0,66,0.00,,,0.00,Wunderground v.1.15,2013-07-18 16:36:00,
2013-07-18 11:42:00,86.5,72.9,29.92,SW,227,0.0,0.0,64,0.00,,,0.00,Wunderground v.1.15,2013-07-18 16:42:00,
2013-07-18 11:48:00,86.7,73.5,29.92,SW,227,0.0,0.0,65,0.00,,,0.00,Wunderground v.1.15,2013-07-18 16:48:00,
2013-07-18 11:54:00,86.3,72.7,29.92,WSW,244,0.0,0.0,64,0.00,,,0.00,Wunderground v.1.15,2013-07-18 16:54:00,
2013-07-18 11:59:00,85.8,73.1,29.91,West,259,0.0,0.0,66,0.00,,,0.00,Wunderground v.1.15,2013-07-18 16:59:00,
2013-07-18 12:05:00,86.2,74.4,29.91,WSW,238,0.0,0.0,68,0.00,,,0.00,Wunderground v.1.15,2013-07-18 17:05:00,
2013-07-18 12:11:00,86.2,73.0,29.91,West,266,0.0,0.0,65,0.00,,,0.00,Wunderground v.1.15,2013-07-18 17:11:00,
2013-07-18 12:17:00,86.5,73.3,29.91,West,259,0.0,0.0,65,0.00,,,0.00,Wunderground v.1.15,2013-07-18 17:17:00,
2013-07-18 12:23:00,86.6,73.0,29.91,WSW,238,0.0,0.0,64,0.00,,,0.00,Wunderground v.1.15,2013-07-18 17:23:00,
2013-07-18 12:29:00,86.8,73.6,29.91,SW,236,0.0,0.0,65,0.00,,,0.00,Wunderground v.1.15,2013-07-18 17:29:00,
2013-07-18 12:34:00,87.1,73.9,29.90,WSW,240,0.0,0.0,65,0.00,,,0.00,Wunderground v.1.15,2013-07-18 17:34:00,
2013-07-18 12:40:00,87.0,72.9,29.90,WSW,252,0.0,0.0,63,0.00,,,0.00,Wunderground v.1.15,2013-07-18 17:40:00,
2013-07-18 12:46:00,86.7,73.1,29.90,WSW,243,0.0,0.0,64,0.00,,,0.00,Wunderground v.1.15,2013-07-18 17:46:00,
2013-07-18 12:52:00,87.0,73.8,29.90,WSW,246,0.0,0.0,65,0.00,,,0.00,Wunderground v.1.15,2013-07-18 17:52:00,
2013-07-18 12:58:00,87.2,74.5,29.89,SSW,198,0.0,0.0,66,0.00,,,0.00,Wunderground v.1.15,2013-07-18 17:58:00,
2013-07-18 13:03:00,87.5,72.9,29.89,SW,229,0.0,0.0,62,0.00,,,0.00,Wunderground v.1.15,2013-07-18 18:03:00,
2013-07-18 13:08:00,87.5,72.4,29.89,WSW,244,0.0,0.0,61,0.00,,,0.00,Wunderground v.1.15,2013-07-18 18:08:00,
2013-07-18 13:14:00,87.9,73.3,29.88,WSW,250,0.0,0.0,62,0.00,,,0.00,Wunderground v.1.15,2013-07-18 18:14:00,
2013-07-18 13:20:00,88.3,73.1,29.88,West,268,0.0,0.0,61,0.00,,,0.00,Wunderground v.1.15,2013-07-18 18:20:00,
2013-07-18 13:25:00,88.4,74.2,29.88,West,265,0.0,0.0,63,0.00,,,0.00,Wunderground v.1.15,2013-07-18 18:25:00,
2013-07-18 13:31:00,88.3,72.7,29.88,WSW,237,0.0,0.0,60,0.00,,,0.00,Wunderground v.1.15,2013-07-18 18:31:00,
2013-07-18 13:37:00,88.2,73.5,29.87,West,264,0.0,0.0,62,0.00,,,0.00,Wunderground v.1.15,2013-07-18 18:37:00,
2013-07-18 13:43:00,88.6,72.9,29.87,SSW,209,0.0,0.0,60,0.00,,,0.00,Wunderground v.1.15,2013-07-18 18:43:00,
2013-07-18 13:49:00,88.7,72.5,29.86,SW,234,0.0,0.0,59,0.00,,,0.00,Wunderground v.1.15,2013-07-18 18:49:00,
2013-07-18 13:55:00,88.6,72.4,29.86,SW,233,0.0,0.0,59,0.00,,,0.00,Wunderground v.1.15,2013-07-18 18:55:00,
2013-07-18 14:01:00,88.7,73.0,29.86,West,261,0.0,0.0,60,0.00,,,0.00,Wunderground v.1.15,2013-07-18 19:01:00,
2013-07-18 14:06:00,89.0,72.3,29.85,SSW,209,0.0,0.0,58,0.00,,,0.00,Wunderground v.1.15,2013-07-18 19:06:00,
2013-07-18 14:12:00,89.2,73.0,29.85,SW,226,0.0,0.0,59,0.00,,,0.00,Wunderground v.1.15,2013-07-18 19:12:00,
2013-07-18 14:18:00,89.4,72.7,29.85,WSW,248,0.0,0.0,58,0.00,,,0.00,Wunderground v.1.15,2013-07-18 19:18:00,
2013-07-18 14:24:00,89.1,72.4,29.84,WSW,250,0.0,0.0,58,0.00,,,0.00,Wunderground v.1.15,2013-07-18 19:24:00,
2013-07-18 14:30:00,89.0,72.3,29.84,West,270,0.0,0.0,58,0.00,,,0.00,Wunderground v.1.15,2013-07-18 19:30:00,
2013-07-18 14:35:00,89.1,71.9,29.84,SW,233,0.0,0.0,57,0.00,,,0.00,Wunderground v.1.15,2013-07-18 19:35:00,
2013-07-18 14:41:00,88.8,72.1,29.83,West,276,0.0,0.0,58,0.00,,,0.00,Wunderground v.1.15,2013-07-18 19:41:00,
2013-07-18 14:46:00,89.0,71.8,29.83,SW,231,0.0,0.0,57,0.00,,,0.00,Wunderground v.1.15,2013-07-18 19:46:00,
2013-07-18 14:52:00,89.0,71.8,29.83,WSW,239,0.0,0.0,57,0.00,,,0.00,Wunderground v.1.15,2013-07-18 19:52:00,
2013-07-18 14:58:00,89.1,71.9,29.82,WSW,239,0.0,0.0,57,0.00,,,0.00,Wunderground v.1.15,2013-07-18 19:58:00,
2013-07-18 15:04:00,89.2,73.0,29.82,SW,219,0.0,0.0,59,0.00,,,0.00,Wunderground v.1.15,2013-07-18 20:04:00,
2013-07-18 15:10:00,89.2,72.0,29.82,SW,233,0.0,0.0,57,0.00,,,0.00,Wunderground v.1.15,2013-07-18 20:10:00,
2013-07-18 15:15:00,88.5,71.3,29.82,WSW,257,0.0,0.0,57,0.00,,,0.00,Wunderground v.1.15,2013-07-18 20:15:00,
2013-07-18 15:21:00,88.1,72.0,29.81,SW,216,0.0,0.0,59,0.00,,,0.00,Wunderground v.1.15,2013-07-18 20:21:00,
2013-07-18 15:27:00,88.7,73.0,29.81,SSW,208,0.0,0.0,60,0.00,,,0.00,Wunderground v.1.15,2013-07-18 20:27:00,
2013-07-18 15:33:00,88.9,72.2,29.81,West,279,0.0,0.0,58,0.00,,,0.00,Wunderground v.1.15,2013-07-18 20:33:00,
2013-07-18 15:39:00,89.1,73.4,29.81,SSW,198,0.0,0.0,60,0.00,,,0.00,Wunderground v.1.15,2013-07-18 20:39:00,
2013-07-18 15:45:00,89.3,71.5,29.80,WSW,246,0.0,0.0,56,0.00,,,0.00,Wunderground v.1.15,2013-07-18 20:45:00,
2013-07-18 15:51:00,88.8,72.6,29.80,WSW,241,0.0,0.0,59,0.00,,,0.00,Wunderground v.1.15,2013-07-18 20:51:00,
2013-07-18 15:57:00,89.0,70.7,29.80,SSW,212,0.0,0.0,55,0.00,,,0.00,Wunderground v.1.15,2013-07-18 20:57:00,
2013-07-18 16:03:00,89.1,71.9,29.81,North,5,0.0,0.0,57,0.00,,,0.00,Wunderground v.1.15,2013-07-18 21:03:00,
2013-07-18 16:08:00,88.5,72.3,29.81,SSW,211,0.0,0.0,59,0.00,,,0.00,Wunderground v.1.15,2013-07-18 21:08:00,
2013-07-18 16:14:00,88.9,71.7,29.81,SW,219,0.0,0.0,57,0.00,,,0.00,Wunderground v.1.15,2013-07-18 21:14:00,
2013-07-18 16:19:00,89.2,72.5,29.80,SW,219,0.0,0.0,58,0.00,,,0.00,Wunderground v.1.15,2013-07-18 21:19:00,
2013-07-18 16:25:00,89.1,72.9,29.80,SSW,202,0.0,0.0,59,0.00,,,0.00,Wunderground v.1.15,2013-07-18 21:25:00,
2013-07-18 16:31:00,88.9,71.7,29.80,WSW,242,0.0,0.0,57,0.00,,,0.00,Wunderground v.1.15,2013-07-18 21:31:00,
2013-07-18 16:37:00,88.6,71.9,29.80,SW,230,0.0,0.0,58,0.00,,,0.00,Wunderground v.1.15,2013-07-18 21:37:00,
2013-07-18 16:42:00,88.5,72.8,29.79,SW,234,0.0,0.0,60,0.00,,,0.00,Wunderground v.1.15,2013-07-18 21:42:00,
2013-07-18 16:48:00,88.8,73.1,29.80,South,189,0.0,0.0,60,0.00,,,0.00,Wunderground v.1.15,2013-07-18 21:48:00,
2013-07-18 16:53:00,89.1,72.9,29.79,SW,230,0.0,0.0,59,0.00,,,0.00,Wunderground v.1.15,2013-07-18 21:53:00,
2013-07-18 16:59:00,89.1,71.4,29.79,SW,236,0.0,0.0,56,0.00,,,0.00,Wunderground v.1.15,2013-07-18 21:59:00,
2013-07-18 17:04:00,89.2,72.0,29.79,West,264,0.0,0.0,57,0.00,,,0.00,Wunderground v.1.15,2013-07-18 22:04:00,
2013-07-18 17:10:00,89.0,71.8,29.79,SSW,205,0.0,0.0,57,0.00,,,0.00,Wunderground v.1.15,2013-07-18 22:10:00,
2013-07-18 17:16:00,89.0,71.8,29.79,WSW,256,0.0,0.0,57,0.00,,,0.00,Wunderground v.1.15,2013-07-18 22:16:00,
2013-07-18 17:21:00,88.7,71.5,29.78,West,267,0.0,0.0,57,0.00,,,0.00,Wunderground v.1.15,2013-07-18 22:21:00,
2013-07-18 17:27:00,88.7,71.5,29.78,SSW,202,0.0,0.0,57,0.00,,,0.00,Wunderground v.1.15,2013-07-18 22:27:00,
2013-07-18 17:32:00,88.8,71.6,29.78,WSW,238,0.0,0.0,57,0.00,,,0.00,Wunderground v.1.15,2013-07-18 22:32:00,
2013-07-18 17:37:00,88.6,73.4,29.77,SW,217,0.0,0.0,61,0.00,,,0.00,Wunderground v.1.15,2013-07-18 22:37:00,
2013-07-18 17:43:00,88.2,72.1,29.77,WSW,239,0.0,0.0,59,0.00,,,0.00,Wunderground v.1.15,2013-07-18 22:43:00,
2013-07-18 17:49:00,88.2,73.5,29.77,SSW,206,0.0,0.0,62,0.00,,,0.00,Wunderground v.1.15,2013-07-18 22:49:00,
2013-07-18 17:55:00,88.3,72.2,29.77,WSW,253,0.0,0.0,59,0.00,,,0.00,Wunderground v.1.15,2013-07-18 22:55:00,
2013-07-18 18:01:00,88.3,72.2,29.76,SW,236,0.0,0.0,59,0.00,,,0.00,Wunderground v.1.15,2013-07-18 23:01:00,
2013-07-18 18:06:00,88.1,72.0,29.76,SW,236,0.0,0.0,59,0.00,,,0.00,Wunderground v.1.15,2013-07-18 23:06:00,
2013-07-18 18:12:00,88.1,71.5,29.76,SW,215,0.0,0.0,58,0.00,,,0.00,Wunderground v.1.15,2013-07-18 23:12:00,
2013-07-18 18:17:00,88.2,72.1,29.75,SW,222,0.0,0.0,59,0.00,,,0.00,Wunderground v.1.15,2013-07-18 23:17:00,
2013-07-18 18:23:00,87.8,71.7,29.75,SSW,200,0.0,0.0,59,0.00,,,0.00,Wunderground v.1.15,2013-07-18 23:23:00,
2013-07-18 18:29:00,87.5,71.4,29.75,SSW,203,0.0,0.0,59,0.00,,,0.00,Wunderground v.1.15,2013-07-18 23:29:00,
2013-07-18 18:35:00,87.5,70.9,29.75,SSW,207,0.0,0.0,58,0.00,,,0.00,Wunderground v.1.15,2013-07-18 23:35:00,
2013-07-18 18:40:00,87.3,71.2,29.75,WSW,238,0.0,0.0,59,0.00,,,0.00,Wunderground v.1.15,2013-07-18 23:40:00,
2013-07-18 18:46:00,87.4,71.3,29.74,West,271,0.0,0.0,59,0.00,,,0.00,Wunderground v.1.15,2013-07-18 23:46:00,
2013-07-18 18:51:00,87.3,71.7,29.74,WSW,248,0.0,0.0,60,0.00,,,0.00,Wunderground v.1.15,2013-07-18 23:51:00,
2013-07-18 18:57:00,87.3,71.7,29.74,West,259,0.0,0.0,60,0.00,,,0.00,Wunderground v.1.15,2013-07-18 23:57:00,
2013-07-18 19:02:00,87.2,71.6,29.73,SSW,208,0.0,0.0,60,0.00,,,0.00,Wunderground v.1.15,2013-07-19 00:02:00,
2013-07-18 19:08:00,87.1,71.0,29.73,WSW,243,0.0,0.0,59,0.00,,,0.00,Wunderground v.1.15,2013-07-19 00:08:00,
2013-07-18 19:14:00,86.9,71.3,29.73,WSW,252,0.0,0.0,60,0.00,,,0.00,Wunderground v.1.15,2013-07-19 00:14:00,
2013-07-18 19:19:00,86.9,71.3,29.72,WSW,256,0.0,0.0,60,0.00,,,0.00,Wunderground v.1.15,2013-07-19 00:19:00,
2013-07-18 19:25:00,86.7,71.2,29.72,SW,232,0.0,0.0,60,0.00,,,0.00,Wunderground v.1.15,2013-07-19 00:25:00,
2013-07-18 19:31:00,86.5,71.5,29.72,SSW,205,0.0,0.0,61,0.00,,,0.00,Wunderground v.1.15,2013-07-19 00:31:00,
2013-07-18 19:36:00,86.2,71.2,29.72,SW,232,0.0,0.0,61,0.00,,,0.00,Wunderground v.1.15,2013-07-19 00:36:00,
2013-07-18 19:42:00,85.9,70.9,29.72,South,185,0.0,0.0,61,0.00,,,0.00,Wunderground v.1.15,2013-07-19 00:42:00,
2013-07-18 19:45:00,85.8,70.8,29.72,SW,217,0.0,0.0,61,0.00,,,0.00,Wunderground v.1.15,2013-07-19 00:45:00,
2013-07-18 19:50:00,85.6,71.1,29.72,South,191,0.0,0.0,62,0.00,,,0.00,Wunderground v.1.15,2013-07-19 00:50:00,
2013-07-18 19:56:00,85.4,70.9,29.72,South,191,0.0,0.0,62,0.00,,,0.00,Wunderground v.1.15,2013-07-19 00:56:00,
2013-07-18 20:03:00,85.1,70.6,29.72,WSW,252,0.0,0.0,62,0.00,,,0.00,Wunderground v.1.15,2013-07-19 01:03:00,
2013-07-18 20:08:00,84.8,70.8,29.72,SW,225,0.0,0.0,63,0.00,,,0.00,Wunderground v.1.15,2013-07-19 01:08:00,
2013-07-18 20:14:00,84.5,70.5,29.72,SW,236,0.0,0.0,63,0.00,,,0.00,Wunderground v.1.15,2013-07-19 01:14:00,
2013-07-18 20:19:00,84.2,71.2,29.72,West,260,0.0,0.0,65,0.00,,,0.00,Wunderground v.1.15,2013-07-19 01:19:00,
2013-07-18 20:25:00,83.7,70.7,29.72,SW,222,0.0,0.0,65,0.00,,,0.00,Wunderground v.1.15,2013-07-19 01:25:00,
2013-07-18 20:31:00,83.4,70.8,29.72,West,260,0.0,0.0,66,0.00,,,0.00,Wunderground v.1.15,2013-07-19 01:31:00,
2013-07-18 20:37:00,83.1,70.6,29.72,SSW,198,0.0,0.0,66,0.00,,,0.00,Wunderground v.1.15,2013-07-19 01:37:00,
2013-07-18 20:42:00,82.9,70.8,29.72,SW,234,0.0,0.0,67,0.00,,,0.00,Wunderground v.1.15,2013-07-19 01:42:00,
2013-07-18 20:48:00,82.7,70.6,29.72,SSW,203,0.0,0.0,67,0.00,,,0.00,Wunderground v.1.15,2013-07-19 01:48:00,
2013-07-18 20:54:00,82.6,70.5,29.72,SW,220,0.0,0.0,67,0.00,,,0.00,Wunderground v.1.15,2013-07-19 01:54:00,
2013-07-18 21:00:00,82.6,71.0,29.73,SW,231,0.0,0.0,68,0.00,,,0.00,Wunderground v.1.15,2013-07-19 02:00:00,
2013-07-18 21:06:00,82.5,70.9,29.73,WSW,241,0.0,0.0,68,0.00,,,0.00,Wunderground v.1.15,2013-07-19 02:06:00,
2013-07-18 21:11:00,82.3,70.7,29.73,SW,218,0.0,0.0,68,0.00,,,0.00,Wunderground v.1.15,2013-07-19 02:11:00,
2013-07-18 21:17:00,82.1,70.5,29.73,WSW,242,0.0,0.0,68,0.00,,,0.00,Wunderground v.1.15,2013-07-19 02:17:00,
2013-07-18 21:23:00,82.1,70.5,29.73,SSW,198,0.0,0.0,68,0.00,,,0.00,Wunderground v.1.15,2013-07-19 02:23:00,
2013-07-18 21:29:00,81.8,70.6,29.73,WSW,247,0.0,0.0,69,0.00,,,0.00,Wunderground v.1.15,2013-07-19 02:29:00,
2013-07-18 21:35:00,81.6,70.4,29.73,South,184,0.0,0.0,69,0.00,,,0.00,Wunderground v.1.15,2013-07-19 02:35:00,
2013-07-18 21:41:00,81.4,70.7,29.73,SW,216,0.0,0.0,70,0.00,,,0.00,Wunderground v.1.15,2013-07-19 02:41:00,
2013-07-18 21:46:00,81.2,70.5,29.73,WSW,240,0.0,0.0,70,0.00,,,0.00,Wunderground v.1.15,2013-07-19 02:46:00,
2013-07-18 21:52:00,81.1,70.4,29.74,SW,216,0.0,0.0,70,0.00,,,0.00,Wunderground v.1.15,2013-07-19 02:52:00,
2013-07-18 21:58:00,80.9,70.2,29.73,SSW,209,0.0,0.0,70,0.00,,,0.00,Wunderground v.1.15,2013-07-19 02:58:00,
2013-07-18 22:04:00,80.7,70.4,29.73,SSW,194,0.0,0.0,71,0.00,,,0.00,Wunderground v.1.15,2013-07-19 03:04:00,
2013-07-18 22:10:00,80.6,70.3,29.74,SW,232,0.0,0.0,71,0.00,,,0.00,Wunderground v.1.15,2013-07-19 03:10:00,
2013-07-18 22:16:00,80.5,70.2,29.74,South,175,0.0,0.0,71,0.00,,,0.00,Wunderground v.1.15,2013-07-19 03:16:00,
2013-07-18 22:22:00,80.5,70.2,29.74,South,185,0.0,0.0,71,0.00,,,0.00,Wunderground v.1.15,2013-07-19 03:22:00,
2013-07-18 22:28:00,80.4,70.1,29.74,SW,229,0.0,0.0,71,0.00,,,0.00,Wunderground v.1.15,2013-07-19 03:28:00,
2013-07-18 22:33:00,80.3,70.0,29.73,SW,225,0.0,0.0,71,0.00,,,0.00,Wunderground v.1.15,2013-07-19 03:33:00,
2013-07-18 22:39:00,80.2,70.4,29.73,SW,234,0.0,0.0,72,0.00,,,0.00,Wunderground v.1.15,2013-07-19 03:39:00,
2013-07-18 22:45:00,80.0,70.2,29.73,WSW,239,0.0,0.0,72,0.00,,,0.00,Wunderground v.1.15,2013-07-19 03:45:00,
2013-07-18 22:51:00,79.9,70.1,29.73,SW,214,0.0,0.0,72,0.00,,,0.00,Wunderground v.1.15,2013-07-19 03:51:00,
2013-07-18 22:57:00,79.7,69.9,29.72,SW,234,0.0,0.0,72,0.00,,,0.00,Wunderground v.1.15,2013-07-19 03:57:00,
2013-07-18 23:01:00,79.6,70.2,29.72,South,185,0.0,0.0,73,0.00,,,0.00,Wunderground v.1.15,2013-07-19 04:01:00,
2013-07-18 23:03:00,79.6,70.2,29.72,WNW,284,0.0,0.0,73,0.00,,,0.00,Wunderground v.1.15,2013-07-19 04:03:00,
2013-07-18 23:04:00,79.6,70.2,29.72,SSE,155,0.0,0.0,73,0.00,,,0.00,Wunderground v.1.15,2013-07-19 04:04:00,
2013-07-18 23:05:00,79.6,70.2,29.72,WSW,257,0.0,0.0,73,0.00,,,0.00,Wunderground v.1.15,2013-07-19 04:05:00,
2013-07-18 23:11:00,79.4,70.0,29.72,West,265,0.0,0.0,73,0.00,,,0.00,Wunderground v.1.15,2013-07-19 04:11:00,
2013-07-18 23:16:00,79.4,70.0,29.72,SSW,209,0.0,0.0,73,0.00,,,0.00,Wunderground v.1.15,2013-07-19 04:16:00,
2013-07-18 23:22:00,79.4,70.0,29.71,WSW,245,0.0,0.0,73,0.00,,,0.00,Wunderground v.1.15,2013-07-19 04:22:00,
2013-07-18 23:28:00,79.4,70.0,29.72,WSW,239,0.0,0.0,73,0.00,,,0.00,Wunderground v.1.15,2013-07-19 04:28:00,
2013-07-18 23:34:00,79.5,70.1,29.71,SW,230,0.0,0.0,73,0.00,,,0.00,Wunderground v.1.15,2013-07-19 04:34:00,
2013-07-18 23:39:00,79.5,70.1,29.71,SW,229,0.0,0.0,73,0.00,,,0.00,Wunderground v.1.15,2013-07-19 04:39:00,
2013-07-18 23:45:00,79.5,70.1,29.71,South,169,0.0,0.0,73,0.00,,,0.00,Wunderground v.1.15,2013-07-19 04:45:00,
2013-07-18 23:51:00,79.5,70.1,29.70,West,262,0.0,0.0,73,0.00,,,0.00,Wunderground v.1.15,2013-07-19 04:51:00,
2013-07-18 23:56:00,79.6,70.2,29.70,WSW,249,0.0,0.0,73,0.00,,,0.00,Wunderground v.1.15,2013-07-19 04:56:00,